FENGYUN 1C DEB

Satellite information

Favourite Embed

Satellite Type and Status

DEBRISIN ORBIT

Key statistics

Satellite FENGYUN 1C DEB at a glance.

Uptime

9661

Days in orbit

Revolutions

≈ 14.2

Per day

Orbit

SSO

Sun Synchronous Orbit

Inclination

98.9

Latest

Satellite identification and parameters

Extended collection of information and parameters for FENGYUN 1C DEB.

Object identification

Identified? True

Debris? True

Object name: FENGYUN 1C DEB

International designator: 1999-025AWW

Object number (NORAD): 30860

Object ID (CCSDS): 30860

Country: PEOPLES REPUBLIC OF CHINA (PRC)

Current information (Y/N): Y

RCS size: SMALL

Orbital parameters

Period: 101.057 minutes

Inclination: 98.9087 deg

SMA: 7186.85 km

Apoapsis: 835.223 km

Periapsis: 782.207 km

RAAN: 6.5409 deg

Eccentricy: 0.00368842

Argument of periapsis: 340.8739 deg

Mean anomaly: 19.1053 deg

Mean motion: 14.24934373 rev/day

Mean motion (dot): 0.00005206 rev/day2

B* drag term: 0.002229721 1/REarth

Two-line elements (TLE)

Creation date: Oct. 21, 2025, 3:26 a.m.

Reference frame: TEME

Reference center: EARTH

Epoch: Oct. 20, 2025, 8:55 p.m. UTC

TLE line 0: 0 FENGYUN 1C DEB

TLE line 1: 1 30860U 99025AWW 25293.87158761 .00005206 00000-0 22297-2 0 9993

TLE line 2: 2 30860 98.9087 6.5409 0036884 340.8739 19.1053 14.24934373957636

Live tracking on map

Real-time ground track for satellite FENGYUN 1C DEB.

In-orbit conjunctions

A list of the most updated potential collisions computed for object FENGYUN 1C DEB.

Target Orbit TCA Probability of collision Miss distance Type
CZ-6A DEB LEO 2025-03-02 17:21:33 0.0001800125 304.0 (m) DEBRIS
SL-12 R/B(2) LEO 2025-02-21 06:22:21 0.0001561807 232.0 (m) ROCKET BODY
COSMOS 1275 DEB LEO 2024-11-15 17:29:03 0.0003624367 334.0 (m) DEBRIS
CZ-6A DEB LEO 2024-11-09 06:00:20 0.001050744 635.0 (m) DEBRIS
NOAA 16 DEB SSO 2024-09-25 02:06:11 0.0003819204 881.0 (m) DEBRIS

Associated space launch

Chinese polar orbiting meteorological satellite

FENGYUN 1C DEB was lifted into orbit during the mission ‘Long March 4B | Feng Yun 1C’, on board a Long March 4B space rocket.

The launch took place on May 10, 1999, 1:33 a.m. from Launch Complex 7.

For more information about the launch, click the button.

Launch to space Long March 4B | Feng Yun 1C
Long March 4B | Feng Yun 1C

Agency: N/A

Status: Launch Successful

Launch date: May 10, 1999, 1:33 a.m. UTC

Rocket: Long March 4B

Launch pad: Launch Complex 7

Location: Taiyuan Satellite Launch Center, People's Republic of China

...

Latest news about this satellite

There are no fresh news available about this satellite. Check back as we update our databases every day.


Newsletter sign-up

Weekly statistics, charts and insights to help you stay on top of the space industry.